GW3593 Weather Reports


Display with metric or nautical units.
time (UTC)temp
F
wind
direction
speed
MPH
gust
MPH
rain 1hr
in
rain 24hr
in
rain mn
in
humidity
%
barometer
mb
20260504140904 64 39 1.0 2.0 0.00 0.00 0.00 68 1018.3
20260504140400 64 139 0.0 5.0 0.00 0.00 0.00 71 1018.5
20260504130325 53 126 0.0 0.0 0.00 0.00 0.00 93 1018.7
20260504120248 47 123 0.0 0.0 0.00 0.00 0.00 99 1018.4
20260504110716 45 126 0.0 0.0 0.00 0.00 0.00 99 1018.2
20260504110212 45 130 0.0 0.0 0.00 0.00 0.00 99 1018.1
20260504100131 44 128 0.0 0.0 0.00 0.00 0.00 99 1017.8
20260504081524 45 128 0.0 0.0 0.00 0.00 0.00 99 1017.8
20260504081019 45 126 0.0 0.0 0.00 0.00 0.00 99 1018.0
20260504080516 45 126 0.0 0.0 0.00 0.00 0.00 99 1018.1
20260504050334 46 118 0.0 0.0 0.00 0.00 0.00 96 1019.1
20260504045831 46 123 0.0 0.0 0.00 0.00 0.00 96 1019.1
20260504045326 46 125 0.0 0.0 0.00 0.00 0.00 96 1019.2
20260504044823 46 136 0.0 0.0 0.00 0.00 0.00 96 1019.1
20260504044320 46 146 0.0 0.0 0.00 0.00 0.00 96 1019.1
20260504043818 46 133 0.0 0.0 0.00 0.00 0.00 96 1019.2
20260504043314 46 125 0.0 0.0 0.00 0.00 0.00 96 1019.1
20260504042812 46 123 0.0 0.0 0.00 0.00 0.00 96 1019.1
20260504042308 46 122 0.0 0.0 0.00 0.00 0.00 96 1019.3
20260504041805 46 125 0.0 0.0 0.00 0.00 0.00 96 1019.3
20260504041301 46 116 0.0 0.0 0.00 0.00 0.00 96 1019.3
20260504040757 46 103 0.0 0.0 0.00 0.00 0.00 96 1019.4
20260504040255 46 125 0.0 0.0 0.00 0.00 0.00 96 1019.3
20260504035750 46 113 0.0 0.0 0.00 0.00 0.00 96 1019.3
20260504035248 47 125 0.0 0.0 0.00 0.00 0.00 96 1019.5
20260504034745 47 113 0.0 0.0 0.00 0.00 0.00 95 1019.5
20260504034242 47 116 0.0 0.0 0.00 0.00 0.00 95 1019.5
20260504033740 47 125 0.0 0.0 0.00 0.00 0.00 95 1019.3
20260504033237 47 112 0.0 0.0 0.00 0.00 0.00 95 1019.5
20260504032734 47 109 0.0 0.0 0.00 0.00 0.00 95 1019.5
20260504032231 47 123 0.0 0.0 0.00 0.00 0.00 95 1019.3
20260504031728 47 112 0.0 0.0 0.00 0.00 0.00 95 1019.4
20260504031225 47 102 0.0 0.0 0.00 0.00 0.00 95 1019.5
20260504030721 47 113 0.0 0.0 0.00 0.00 0.00 95 1019.7
20260504030219 47 117 0.0 0.0 0.00 0.00 0.00 94 1019.8
20260504025715 48 135 0.0 0.0 0.00 0.00 0.00 94 1019.4
20260504025211 48 116 0.0 0.0 0.00 0.00 0.00 94 1019.6
20260504024709 48 122 0.0 0.0 0.00 0.00 0.00 94 1019.7
20260504024205 48 122 0.0 0.0 0.00 0.00 0.00 93 1019.8
20260504023702 48 118 0.0 0.0 0.00 0.00 0.00 93 1019.7
20260504023158 48 114 0.0 0.0 0.00 0.00 0.00 92 1019.8
20260504022654 48 123 0.0 0.0 0.00 0.00 0.00 92 1019.7
20260504022150 49 129 0.0 0.0 0.00 0.00 0.00 91 1019.7
20260504021648 49 123 0.0 0.0 0.00 0.00 0.00 91 1019.6
20260504021145 49 123 0.0 0.0 0.00 0.00 0.00 90 1019.8
20260504020642 50 123 0.0 0.0 0.00 0.00 0.00 90 1019.6
20260504020137 50 123 0.0 0.0 0.00 0.00 0.00 89 1019.6
20260504015635 50 123 0.0 0.0 0.00 0.00 0.00 88 1019.5
20260504015131 50 123 0.0 0.0 0.00 0.00 0.00 87 1019.3
20260504014626 51 123 0.0 0.0 0.00 0.00 0.00 86 1019.3
20260504014124 51 123 0.0 0.0 0.00 0.00 0.00 86 1019.4
20260504013621 51 123 0.0 0.0 0.00 0.00 0.00 84 1019.4
20260504013118 52 123 0.0 0.0 0.00 0.00 0.00 83 1019.2
20260504012615 52 126 0.0 0.0 0.00 0.00 0.00 82 1019.4
20260504012113 53 126 0.0 0.0 0.00 0.00 0.00 81 1019.2
20260504011610 53 124 0.0 0.0 0.00 0.00 0.00 79 1019.0
20260504011106 54 123 0.0 0.0 0.00 0.00 0.00 78 1019.0
20260504010602 54 123 0.0 0.0 0.00 0.00 0.00 77 1019.2
20260504010058 55 123 0.0 0.0 0.00 0.00 0.00 75 1019.3
20260504005555 55 122 0.0 0.0 0.00 0.00 0.00 73 1019.3
20260504005052 56 123 0.0 0.0 0.00 0.00 0.00 72 1019.2
20260504004550 57 123 0.0 0.0 0.00 0.00 0.00 70 1019.2
20260504004047 57 124 0.0 0.0 0.00 0.00 0.00 68 1019.3
20260504003543 58 129 0.0 0.0 0.00 0.00 0.00 69 1019.4
20260504003040 59 131 0.0 0.0 0.00 0.00 0.00 65 1019.3
20260504002537 59 131 0.0 0.0 0.00 0.00 0.00 63 1019.0
20260504002034 60 132 0.0 0.0 0.00 0.00 0.00 60 1019.3
20260504001532 60 132 0.0 0.0 0.00 0.00 0.00 59 1019.4
20260504001028 61 132 0.0 0.0 0.00 0.00 0.00 59 1019.4
20260504000525 62 132 0.0 0.0 0.00 0.00 0.00 58 1019.1
20260504000023 62 133 0.0 0.0 0.00 0.00 0.00 54 1019.3
20260503235521 63 133 0.0 0.0 0.00 0.00 0.00 55 1019.2
20260503235017 64 165 0.0 0.0 0.00 0.00 0.00 51 1019.1
20260503234515 65 151 0.0 1.0 0.00 0.00 0.00 52 1019.4
20260503234013 65 134 0.0 1.0 0.00 0.00 0.00 46 1019.3
20260503233509 66 76 0.0 1.0 0.00 0.00 0.00 42 1019.1
20260503233005 66 134 0.0 0.0 0.00 0.00 0.00 42 1019.2
20260503232502 66 138 0.0 0.0 0.00 0.00 0.00 42 1019.3
20260503232000 66 155 0.0 0.0 0.00 0.00 0.00 44 1019.3
20260503231457 67 149 0.0 1.0 0.00 0.00 0.00 43 1019.5
20260503230954 67 72 0.0 1.0 0.00 0.00 0.00 40 1019.6
20260503230450 67 197 1.0 1.0 0.00 0.00 0.00 40 1019.4
20260503225948 67 123 0.0 0.0 0.00 0.00 0.00 40 1019.6
20260503225445 67 124 0.0 0.0 0.00 0.00 0.00 39 1019.5
20260503224940 68 133 0.0 1.0 0.00 0.00 0.00 39 1019.6
20260503224437 68 82 0.0 0.0 0.00 0.00 0.00 40 1019.9
20260503223935 68 154 0.0 2.0 0.00 0.00 0.00 36 1019.8
20260503223433 69 167 1.0 2.0 0.00 0.00 0.00 38 1019.9
20260503222928 69 137 0.0 1.0 0.00 0.00 0.00 38 1020.0
20260503222427 69 109 0.0 1.0 0.00 0.00 0.00 37 1019.9
20260503221925 70 294 1.0 2.0 0.00 0.00 0.00 37 1019.9
20260503221423 70 277 2.0 5.0 0.00 0.00 0.00 35 1020.3
20260503220919 71 146 1.0 1.0 0.00 0.00 0.00 34 1020.0
20260503220416 71 93 0.0 2.0 0.00 0.00 0.00 37 1020.2
20260503215913 71 97 1.0 2.0 0.00 0.00 0.00 35 1020.3
20260503215410 72 137 1.0 1.0 0.00 0.00 0.00 34 1020.7
20260503214907 72 202 0.0 1.0 0.00 0.00 0.00 33 1020.5
20260503214404 73 162 0.0 0.0 0.00 0.00 0.00 34 1020.7
20260503213902 72 155 1.0 3.0 0.00 0.00 0.00 33 1020.7
20260503213400 72 303 2.0 3.0 0.00 0.00 0.00 34 1020.7
20260503212856 72 153 2.0 2.0 0.00 0.00 0.00 34 1020.6
20260503212354 71 85 1.0 1.0 0.00 0.00 0.00 36 1020.8
20260503211851 71 290 2.0 5.0 0.00 0.00 0.00 34 1020.9
20260503211348 73 162 1.0 2.0 0.00 0.00 0.00 32 1020.8
20260503210843 72 322 1.0 5.0 0.00 0.00 0.00 33 1020.9
20260503210340 73 277 2.0 2.0 0.00 0.00 0.00 34 1020.8
20260503205835 73 167 0.0 1.0 0.00 0.00 0.00 33 1021.1
20260503205332 72 231 1.0 3.0 0.00 0.00 0.00 35 1021.1
20260503204828 70 140 0.0 1.0 0.00 0.00 0.00 37 1021.2
20260503204326 71 306 2.0 5.0 0.00 0.00 0.00 36 1021.3
20260503203823 69 81 0.0 3.0 0.00 0.00 0.00 35 1021.4
20260503203321 70 274 3.0 5.0 0.00 0.00 0.00 37 1021.4
20260503202817 70 180 2.0 2.0 0.00 0.00 0.00 34 1021.5
20260503202315 70 102 1.0 5.0 0.00 0.00 0.00 36 1021.7
20260503201813 69 169 0.0 2.0 0.00 0.00 0.00 39 1022.0
20260503201310 69 95 1.0 3.0 0.00 0.00 0.00 35 1021.8
20260503200808 69 321 3.0 5.0 0.00 0.00 0.00 36 1021.9
20260503200303 71 13 2.0 2.0 0.00 0.00 0.00 35 1022.2
20260503195801 70 173 0.0 2.0 0.00 0.00 0.00 37 1022.0
20260503195257 69 181 1.0 5.0 0.00 0.00 0.00 36 1022.2
20260503194755 68 34 2.0 2.0 0.00 0.00 0.00 37 1022.5
20260503194250 69 37 0.0 1.0 0.00 0.00 0.00 39 1022.4
20260503193747 69 285 4.0 5.0 0.00 0.00 0.00 38 1022.5
20260503193243 68 294 1.0 2.0 0.00 0.00 0.00 41 1022.6
20260503192738 68 45 2.0 2.0 0.00 0.00 0.00 39 1022.6
20260503192234 69 197 0.0 2.0 0.00 0.00 0.00 40 1022.5
20260503191731 69 4 2.0 3.0 0.00 0.00 0.00 42 1022.7
20260503191228 68 66 1.0 2.0 0.00 0.00 0.00 37 1022.9
20260503190725 69 78 1.0 3.0 0.00 0.00 0.00 36 1023.1
20260503190221 67 341 1.0 2.0 0.00 0.00 0.00 40 1022.9
20260503185719 68 45 2.0 3.0 0.00 0.00 0.00 38 1023.2
20260503185214 68 104 0.0 2.0 0.00 0.00 0.00 38 1023.3
20260503184709 69 149 2.0 3.0 0.00 0.00 0.00 36 1023.2
20260503184206 69 154 1.0 3.0 0.00 0.00 0.00 36 1023.3
20260503183702 69 58 0.0 2.0 0.00 0.00 0.00 38 1023.3
20260503183159 67 203 2.0 3.0 0.00 0.00 0.00 38 1023.6
20260503182657 68 217 1.0 2.0 0.00 0.00 0.00 39 1023.8
20260503182155 68 296 1.0 2.0 0.00 0.00 0.00 35 1023.6
20260503181652 68 187 0.0 2.0 0.00 0.00 0.00 36 1023.8
20260503181149 67 162 1.0 3.0 0.00 0.00 0.00 39 1023.7
20260503180646 67 207 3.0 6.0 0.00 0.00 0.00 36 1023.8
20260503180144 67 136 2.0 3.0 0.00 0.00 0.00 38 1023.8
20260503175640 66 80 0.0 2.0 0.00 0.00 0.00 37 1023.9
20260503175138 65 132 2.0 3.0 0.00 0.00 0.00 39 1023.9
20260503174634 66 342 3.0 5.0 0.00 0.00 0.00 39 1024.1
20260503174131 66 147 2.0 8.0 0.00 0.00 0.00 40 1024.3
20260503173626 65 326 1.0 3.0 0.00 0.00 0.00 40 1024.3
20260503173123 63 46 1.0 6.0 0.00 0.00 0.00 41 1024.3
20260503172620 64 143 0.0 2.0 0.00 0.00 0.00 39 1024.1
20260503172118 65 51 2.0 2.0 0.00 0.00 0.00 39 1024.4
20260503171614 64 353 0.0 1.0 0.00 0.00 0.00 40 1024.4
20260503171111 65 102 0.0 3.0 0.00 0.00 0.00 41 1024.2
20260503170608 63 72 0.0 0.0 0.00 0.00 0.00 39 1024.6
20260503170105 64 15 2.0 3.0 0.00 0.00 0.00 39 1024.5
20260503151000 57 328 2.0 2.0 0.00 0.00 0.00 48 1025.4
20260503150456 57 151 1.0 3.0 0.00 0.00 0.00 51 1025.6